Theta_e
309 310 310 310 310 310 310 309 309 309 308 307 307 307 307 310 311 312 313 314 314 315 314 313 316 316 315 315 314 309 310 312 313 315 316 313 314 312 310 312 311 309 310 309 310
310 310 310 310 310 310 310 309 309 309 308 307 307 306 306 310 311 313 311 314 315 315 316 315 314 313 313 316 315 314 308 310 310 314 315 314 312 312 313 311 310 311 309 308 309
311 311 311 311 311 310 310 310 310 310 309 308 307 306 306 310 313 310 316 313 316 315 315 315 314 313 315 315 315 314 313 312 314 313 314 314 312 310 311 311 308 310 309 305 305
312 310 310 310 310 310 310 311 311 310 310 310 309 307 306 311 308 314 315 316 315 314 315 314 312 315 315 316 314 316 313 313 314 315 314 313 312 311 309 313 310 307 308 304 303
314 313 313 312 310 308 307 308 309 310 311 311 310 308 308 312 310 311 314 316 314 313 314 311 312 313 315 313 315 315 315 314 312 313 312 311 311 311 310 309 306 306 306 305 304
315 315 315 314 314 312 309 307 306 306 308 310 310 308 311 307 310 312 314 313 313 313 313 311 311 311 313 314 314 313 313 312 311 312 312 314 313 312 313 310 308 307 306 304 304
316 315 315 315 316 316 314 311 309 307 305 305 308 307 314 307 311 312 313 312 312 313 311 311 312 313 312 312 312 312 312 310 309 311 312 310 312 310 312 310 309 307 306 305 304
316 316 316 316 316 317 317 313 311 310 308 306 305 312 306 310 311 312 312 311 311 312 311 312 312 312 313 310 309 311 311 311 310 309 311 310 311 311 309 309 309 308 306 304 305
316 316 316 317 317 318 315 312 311 310 308 306 310 313 308 311 311 312 312 311 310 310 310 312 311 310 311 309 308 307 309 309 309 309 311 310 312 311 310 308 308 307 306 306 305
317 317 317 318 318 318 316 311 311 311 313 314 316 309 306 310 312 311 310 310 309 308 309 310 307 308 307 307 310 309 309 308 309 310 310 311 310 310 311 308 307 308 307 308 308
319 318 318 318 319 317 315 311 307 306 313 307 309 306 309 311 312 309 310 310 309 308 308 309 308 309 310 309 310 308 307 308 308 308 311 310 311 311 311 310 310 306 309 309 309
320 320 320 319 319 318 312 310 309 308 306 306 306 308 310 311 311 309 309 310 310 310 307 310 308 309 308 308 309 309 310 310 310 310 307 308 309 309 308 309 311 311 310 309 308
323 321 320 320 320 318 311 310 308 309 307 306 305 305 306 310 310 310 308 308 309 309 308 310 310 309 308 308 310 308 309 310 310 309 306 306 310 309 307 308 309 309 309 309 309
325 324 322 321 318 317 313 313 308 309 307 306 307 306 308 309 308 305 306 308 309 309 308 308 308 309 309 309 309 310 308 309 309 309 311 309 312 309 308 308 307 308 309 308 308
324 324 324 322 319 317 316 312 308 305 329 312 308 308 308 305 305 305 305 307 308 308 308 307 309 309 309 310 308 310 309 308 308 307 309 310 308 311 308 308 307 308 307 308 306
322 323 322 320 319 321 317 309 309 314 325 312 307 308 309 308 307 304 305 304 305 307 306 307 305 307 308 307 306 308 310 308 305 307 311 310 310 312 308 309 309 308 307 307 307
318 319 319 319 318 318 315 313 325 327 316 315 309 308 307 308 308 305 306 307 307 308 306 305 306 306 307 309 307 308 308 310 309 310 312 307 309 313 310 307 307 309 307 304 303
313 315 318 319 319 318 316 322 325 321 319 314 310 308 310 307 310 306 305 305 304 305 304 307 313 306 305 307 307 307 308 311 309 315 316 306 310 314 308 307 306 304 304 302 302
307 311 316 317 318 315 318 324 322 323 320 321 321 320 314 310 310 308 306 306 306 304 309 307 310 306 305 306 307 306 308 308 311 304 309 311 310 310 307 306 307 306 303 303 300
304 311 314 315 318 314 319 323 322 320 319 320 325 322 322 312 319 310 310 308 307 304 305 310 311 310 306 305 305 306 306 309 307 313 312 310 311 312 310 311 308 306 305 304 302
304 309 311 315 314 314 318 318 318 317 318 320 322 323 322 323 321 322 322 317 308 310 304 307 312 316 311 307 311 306 307 307 307 311 315 316 315 313 312 308 306 305 304 306 304
307 310 310 314 315 315 317 315 314 315 315 318 318 320 321 320 320 320 322 319 313 312 314 310 313 318 316 307 305 307 308 308 312 313 311 313 315 313 312 309 303 307 309 308 303
304 307 311 311 315 315 314 315 315 315 315 316 317 316 316 318 319 317 318 316 315 314 316 315 317 319 319 313 311 314 315 313 313 312 313 313 313 311 311 311 311 309 306 304 304
300 302 308 309 310 313 313 314 314 313 315 315 316 314 315 316 315 317 315 313 310 311 311 314 317 319 320 318 313 314 312 312 315 316 315 314 313 312 312 312 311 311 308 306 304
296 299 302 308 307 308 310 309 311 311 312 313 314 315 315 315 314 315 311 308 308 309 308 311 315 314 313 312 312 313 314 314 316 316 315 315 317 315 313 311 307 304 303 300 300
296 297 298 297 300 303 306 308 308 308 309 310 311 311 311 312 312 307 302 304 304 305 303 304 306 307 307 305 306 309 308 310 313 311 311 309 308 301 297 295 293 297 294 294 294
294 296 297 296 297 298 300 303 302 299 304 302 299 300 303 302 297 297 296 297 298 299 299 301 303 301 303 301 299 300 300 302 305 306 305 306 299 295 294 293 292 294 292 293 294
Wind_Speed
9 10 10 11 11 11 10 10 10 11 12 12 12 13 12 10 9 8 8 9 5 11 8 8 5 4 2 1 2 4 3 3 5 5 4 1 3 2 1 2 3 6 4 1 6
10 11 11 12 12 13 13 12 12 12 12 13 14 14 14 11 10 13 15 10 10 14 12 12 5 5 1 1 1 4 3 8 6 4 4 2 5 4 1 4 4 6 4 3 20
11 12 13 13 13 13 14 14 14 14 13 13 14 14 14 11 4 6 1 15 11 14 9 9 6 5 1 2 4 5 6 5 6 7 4 3 4 5 4 8 9 10 9 8 17
11 12 12 14 15 15 15 14 14 14 15 14 15 15 13 4 5 2 1 11 15 15 9 7 4 4 4 5 4 3 9 6 5 3 2 4 3 5 9 21 6 14 4 8 11
13 13 14 14 16 15 16 17 16 15 14 13 13 13 6 2 9 8 5 12 17 16 14 6 5 5 5 4 2 5 5 7 6 6 7 7 11 7 12 20 9 9 7 10 12
13 14 15 16 17 17 17 18 18 18 18 16 13 11 1 4 7 7 8 11 11 16 10 9 6 6 4 4 6 2 5 8 5 6 6 6 12 5 18 5 9 8 12 10 12
12 13 15 16 19 20 20 21 20 20 19 17 14 6 3 14 8 7 10 10 15 8 1 4 2 3 1 3 3 4 8 9 7 5 9 7 12 11 25 2 12 10 10 10 15
11 13 14 16 19 22 23 22 22 21 20 16 11 5 8 8 13 15 14 7 6 8 4 1 4 2 2 3 6 4 1 5 1 6 3 9 13 19 12 7 14 13 10 10 13
11 13 14 16 18 24 21 21 21 15 11 5 6 5 9 5 6 13 15 7 8 7 5 5 4 3 2 3 4 2 5 8 12 12 5 8 10 13 4 7 11 11 11 12 12
11 13 14 16 19 23 21 19 4 3 7 7 3 2 5 6 4 4 11 11 4 6 4 3 4 2 3 4 8 8 6 6 7 6 4 6 15 12 14 7 12 14 14 18 19
11 13 14 16 19 21 22 4 4 2 0 8 6 5 3 2 6 5 8 8 5 4 6 3 4 10 21 17 5 4 7 8 9 8 3 9 15 17 17 17 17 16 20 23 21
13 12 13 14 18 15 10 5 1 2 8 9 12 8 17 2 2 2 10 6 5 7 7 2 10 19 4 4 8 9 15 17 17 18 5 17 23 17 12 16 25 25 21 22 21
13 13 13 13 15 7 5 3 4 1 2 9 6 4 5 10 7 6 11 4 5 7 10 14 7 12 8 7 7 10 8 18 17 6 6 10 19 14 12 16 22 24 21 20 21
15 14 13 13 8 7 2 6 2 3 3 7 3 3 1 3 4 2 5 4 2 10 6 9 7 11 6 7 14 19 13 14 11 3 8 3 18 6 8 15 10 19 18 15 17
12 13 13 8 9 4 2 5 1 1 7 3 3 1 1 4 4 3 1 3 5 5 5 9 5 4 7 15 9 11 3 6 2 3 5 3 4 1 5 7 14 13 14 17 13
10 10 9 9 8 9 6 3 2 2 9 4 2 1 4 2 2 2 2 3 3 3 5 10 3 6 9 6 9 2 3 2 3 3 8 11 9 8 5 8 5 6 11 12 14
10 8 12 10 3 3 6 6 3 7 3 3 2 3 3 4 2 3 4 3 5 1 5 1 5 3 5 4 1 4 4 4 4 1 11 6 6 18 13 8 8 13 11 11 11
11 10 12 18 12 9 5 0 6 5 5 3 1 2 4 7 3 3 2 3 5 1 2 3 14 8 5 9 8 7 10 6 7 10 18 8 11 18 9 8 5 5 8 9 12
12 10 8 15 17 11 2 6 8 5 5 4 5 4 5 3 4 4 7 6 8 13 8 4 14 0 6 4 9 4 6 7 5 1 2 13 18 17 6 7 2 5 7 10 10
9 6 10 15 18 12 4 18 8 9 2 2 6 5 4 5 4 5 5 2 5 10 3 3 12 6 2 2 4 7 1 2 1 4 10 8 15 16 17 17 10 6 6 9 8
2 3 6 20 22 3 10 8 15 14 11 7 8 11 12 6 8 4 4 3 3 4 6 1 3 12 1 7 12 1 4 5 1 5 15 18 12 27 20 8 9 7 7 6 8
3 3 3 25 5 3 13 9 9 17 5 9 7 14 17 16 17 13 11 9 6 5 6 7 6 9 20 3 4 1 5 7 10 12 12 16 18 22 30 13 9 18 19 15 8
2 3 3 7 7 12 6 7 13 19 17 5 10 9 16 20 14 14 12 6 1 5 4 4 4 4 3 6 1 6 13 18 16 13 19 19 17 14 20 29 23 16 9 8 8
1 3 2 2 6 8 12 17 15 6 13 10 9 10 13 14 12 9 12 5 6 5 10 6 8 14 16 15 21 18 10 12 19 15 22 21 25 21 25 29 32 29 10 14 17
1 3 1 3 8 15 13 13 17 15 7 5 4 12 17 9 11 9 4 6 2 5 4 2 8 7 13 13 13 17 20 20 24 25 21 22 22 18 26 23 17 20 18 18 18
2 2 2 4 6 6 6 17 22 23 16 21 18 14 6 7 6 2 4 1 3 2 3 1 8 13 20 22 16 19 20 27 19 15 15 21 29 18 19 20 23 16 18 18 18
3 2 1 4 2 1 5 9 3 7 2 4 5 4 8 2 1 5 8 10 13 11 7 6 6 5 19 21 17 15 19 21 20 23 23 21 7 12 17 19 19 14 18 18 16
Wind_Direction
352 352 351 350 348 347 348 349 349 348 348 346 346 346 340 321 297 265 243 230 215 208 184 170 167 166 146 76 116 126 60 251 250 182 246 198 223 199 157 237 229 211 203 263 160
337 337 337 338 336 334 334 334 335 336 336 337 338 339 338 326 302 250 255 222 206 190 177 168 167 140 61 218 167 119 150 228 217 221 233 260 194 249 280 242 247 281 231 168 165
324 322 324 324 321 321 321 323 324 325 326 329 330 334 335 330 325 249 335 207 193 191 197 184 140 122 219 145 209 184 213 220 255 231 254 247 251 214 197 265 210 216 235 174 182
336 332 324 319 317 313 308 307 308 312 316 320 323 330 331 334 295 282 238 183 188 191 189 171 128 153 199 211 202 224 247 230 262 227 259 252 278 250 190 251 196 225 204 170 192
340 341 340 335 329 318 308 302 298 295 296 301 308 321 327 9 251 283 240 182 188 192 197 168 162 164 194 206 210 228 249 251 255 276 262 306 255 253 256 255 245 249 213 211 209
333 338 339 339 338 331 322 313 301 291 286 285 290 306 211 239 254 263 221 199 203 201 207 174 201 201 220 224 188 276 269 271 269 227 247 230 279 136 269 255 253 242 244 230 220
324 329 332 335 336 336 328 316 307 296 285 277 275 271 214 237 244 248 222 212 210 206 223 230 216 159 146 294 301 307 316 311 209 224 227 170 292 225 250 215 279 261 253 246 232
317 321 326 331 332 334 328 319 308 297 286 279 263 189 244 248 243 235 213 200 202 204 191 186 171 148 196 314 358 342 332 322 308 137 231 157 257 267 251 231 265 275 271 256 252
319 322 326 330 333 334 329 321 310 304 291 266 159 169 263 272 220 229 209 171 156 122 118 119 129 173 305 101 7 299 240 224 305 198 152 187 245 265 265 191 268 270 271 274 274
318 323 328 333 335 336 333 321 343 74 92 118 83 44 267 241 183 172 184 163 130 123 76 102 63 179 53 113 233 227 225 249 242 288 168 229 249 275 292 205 244 264 269 271 268
314 320 327 333 336 340 339 348 5 346 233 196 200 232 285 173 158 156 160 131 107 93 171 198 137 206 223 207 225 188 219 236 253 254 244 245 254 261 267 281 263 257 261 262 264
304 311 319 330 337 345 356 57 73 276 304 254 249 262 258 191 225 210 158 141 160 195 126 112 214 220 222 168 212 240 260 265 270 264 229 267 266 267 254 252 261 264 261 260 263
290 297 307 322 332 351 30 45 317 245 255 290 220 201 242 173 215 208 156 144 163 172 201 216 223 221 201 223 245 231 227 255 261 303 238 283 274 243 251 251 255 266 257 266 265
278 285 297 313 314 334 283 342 346 165 324 272 257 265 207 192 213 7 188 146 215 221 212 244 233 214 183 204 212 266 225 257 264 347 273 9 299 197 242 250 238 249 266 252 260
287 278 275 272 303 295 309 336 121 145 298 236 197 10 27 163 123 353 227 104 206 201 157 250 182 176 206 230 162 246 218 230 184 217 327 212 270 176 136 250 255 262 255 260 249
279 279 274 247 251 262 288 287 165 54 248 298 141 100 108 10 12 40 31 15 116 216 217 251 322 177 218 220 182 106 79 76 62 121 269 201 208 323 163 217 269 269 270 264 269
289 285 250 226 177 233 200 305 201 217 1 249 210 164 171 191 247 193 145 199 200 256 259 266 214 228 169 251 100 133 81 310 314 71 245 147 202 257 288 234 222 267 279 313 302
291 276 241 242 240 198 126 118 266 195 229 319 126 88 212 163 230 116 51 264 241 132 317 279 293 185 171 188 193 192 167 180 215 268 280 124 256 277 227 265 279 323 291 302 319
297 283 238 241 226 192 139 211 216 213 205 264 314 233 215 239 209 160 194 228 223 183 204 217 270 36 209 172 155 177 189 227 262 178 272 270 274 285 239 264 31 347 349 322 298
318 283 229 244 201 160 218 241 240 208 222 238 236 192 192 187 197 191 188 199 248 196 220 257 275 215 199 177 243 182 102 68 329 223 244 250 270 261 278 279 270 267 313 296 1
288 268 261 214 168 194 226 239 249 243 260 257 265 258 262 248 212 222 191 257 228 259 197 127 85 266 196 213 236 154 240 214 189 212 257 261 251 269 273 255 236 272 260 295 305
238 242 238 170 195 207 234 222 219 259 266 255 258 251 255 264 268 266 244 238 245 215 222 233 218 249 255 252 191 158 241 241 238 251 242 257 254 270 278 271 247 271 289 302 307
261 273 217 212 230 229 244 245 242 251 244 235 244 237 250 260 268 246 256 285 236 209 233 161 225 260 262 292 281 210 237 233 244 268 259 262 261 266 285 290 283 281 285 262 262
316 283 205 245 246 256 250 252 257 225 251 236 250 269 269 266 264 267 275 308 21 354 347 264 249 257 263 271 288 275 252 255 239 251 258 254 268 260 275 282 293 297 324 357 19
94 252 320 244 242 248 249 265 269 269 226 219 236 244 263 256 269 266 298 341 300 30 8 10 270 281 307 314 310 303 298 298 284 272 258 267 277 287 270 296 342 360 20 24 15
229 224 327 296 307 287 246 246 257 268 269 268 266 279 283 267 254 165 10 113 284 356 44 193 281 293 277 283 280 281 281 268 267 274 278 279 286 9 18 11 3 21 16 11 359
235 292 331 261 282 275 254 262 289 350 43 31 51 337 276 298 349 293 275 256 256 268 260 255 260 272 273 281 295 279 262 275 273 270 282 292 1 19 9 359 346 11 7 352 347